Time,TemperatureF,DewpointF,PressureIn,WindDirection,WindDirectionDegrees,WindSpeedMPH,WindSpeedGustMPH,Humidity,HourlyPrecipIn,Conditions,Clouds,dailyrainin,SoftwareType,DateUTC
2015-04-18 00:02:00,46.9,36.2,30.05,West,261,0.0,3.0,66,0.00,CLR,CLR,0.00,WeatherDisplay:10.34,2015-04-18 04:02:00,
2015-04-18 00:07:00,46.9,36.2,30.05,WSW,240,0.0,6.0,66,0.00,CLR,CLR,0.00,WeatherDisplay:10.34,2015-04-18 04:07:00,
2015-04-18 00:12:00,46.9,36.2,30.05,WSW,245,0.0,0.0,66,0.00,CLR,CLR,0.00,WeatherDisplay:10.34,2015-04-18 04:12:00,
2015-04-18 00:17:00,46.9,36.5,30.05,West,271,0.0,0.0,67,0.00,CLR,CLR,0.00,WeatherDisplay:10.34,2015-04-18 04:17:00,
2015-04-18 00:22:00,47.3,37.3,30.05,SSW,210,0.0,6.0,68,0.00,CLR,CLR,0.00,WeatherDisplay:10.34,2015-04-18 04:22:00,
2015-04-18 00:27:00,47.5,37.1,30.05,WSW,238,0.0,3.0,67,0.00,CLR,CLR,0.00,WeatherDisplay:10.34,2015-04-18 04:27:00,
2015-04-18 00:32:00,47.7,37.2,30.05,WSW,250,4.0,6.0,67,0.00,CLR,CLR,0.00,WeatherDisplay:10.34,2015-04-18 04:32:00,
2015-04-18 00:37:00,47.8,37.0,30.05,WSW,254,0.0,6.0,66,0.00,CLR,CLR,0.00,WeatherDisplay:10.34,2015-04-18 04:37:00,
2015-04-18 00:42:00,47.8,36.6,30.05,WSW,250,3.0,5.0,65,0.00,CLR,CLR,0.00,WeatherDisplay:10.34,2015-04-18 04:42:00,
2015-04-18 00:47:00,47.7,36.1,30.05,West,266,3.0,5.0,64,0.00,CLR,CLR,0.00,WeatherDisplay:10.34,2015-04-18 04:47:00,
2015-04-18 00:52:00,47.8,36.2,30.05,West,263,3.0,7.0,64,0.00,CLR,CLR,0.00,WeatherDisplay:10.34,2015-04-18 04:52:00,
2015-04-18 00:57:00,47.8,36.2,30.05,West,259,0.0,3.0,64,0.00,CLR,CLR,0.00,WeatherDisplay:10.34,2015-04-18 04:57:00,
2015-04-18 01:02:00,48.0,36.4,30.05,WSW,241,3.0,5.0,64,0.00,CLR,CLR,0.00,WeatherDisplay:10.34,2015-04-18 05:02:00,
2015-04-18 01:07:00,47.8,35.8,30.04,West,260,3.0,3.0,63,0.00,CLR,CLR,0.00,WeatherDisplay:10.34,2015-04-18 05:07:00,
2015-04-18 01:12:00,47.8,35.8,30.04,WSW,237,0.0,6.0,63,0.00,CLR,CLR,0.00,WeatherDisplay:10.34,2015-04-18 05:12:00,
2015-04-18 01:17:00,48.0,36.0,30.04,WSW,253,0.0,0.0,63,0.00,CLR,CLR,0.00,WeatherDisplay:10.34,2015-04-18 05:17:00,
2015-04-18 01:22:00,48.0,36.0,30.04,WNW,284,0.0,2.0,63,0.00,CLR,CLR,0.00,WeatherDisplay:10.34,2015-04-18 05:22:00,
2015-04-18 01:27:00,47.8,35.4,30.04,SW,233,0.0,3.0,62,0.00,CLR,CLR,0.00,WeatherDisplay:10.34,2015-04-18 05:27:00,
2015-04-18 01:32:00,47.8,35.4,30.04,WSW,253,4.0,7.0,62,0.00,CLR,CLR,0.00,WeatherDisplay:10.34,2015-04-18 05:32:00,
2015-04-18 01:37:00,47.8,35.4,30.04,NW,311,0.0,3.0,62,0.00,CLR,CLR,0.00,WeatherDisplay:10.34,2015-04-18 05:37:00,
2015-04-18 01:42:00,47.8,35.4,30.04,WNW,285,0.0,3.0,62,0.00,CLR,CLR,0.00,WeatherDisplay:10.34,2015-04-18 05:42:00,
2015-04-18 01:47:00,47.7,34.9,30.04,West,277,0.0,2.0,61,0.00,CLR,CLR,0.00,WeatherDisplay:10.34,2015-04-18 05:47:00,
2015-04-18 01:52:00,47.5,34.7,30.04,West,274,0.0,3.0,61,0.00,CLR,CLR,0.00,WeatherDisplay:10.34,2015-04-18 05:52:00,
2015-04-18 01:57:00,47.3,34.5,30.04,West,273,0.0,0.0,61,0.00,CLR,CLR,0.00,WeatherDisplay:10.34,2015-04-18 05:57:00,
2015-04-18 02:02:00,47.1,34.4,30.04,West,273,0.0,0.0,61,0.00,CLR,CLR,0.00,WeatherDisplay:10.34,2015-04-18 06:02:00,
2015-04-18 02:07:00,46.9,34.2,30.04,West,273,3.0,3.0,61,0.00,CLR,CLR,0.00,WeatherDisplay:10.34,2015-04-18 06:07:00,
2015-04-18 02:12:00,46.8,34.0,30.04,West,272,0.0,3.0,61,0.00,CLR,CLR,0.00,WeatherDisplay:10.34,2015-04-18 06:12:00,
2015-04-18 02:17:00,46.6,33.8,30.04,West,272,0.0,0.0,61,0.00,CLR,CLR,0.00,WeatherDisplay:10.34,2015-04-18 06:17:00,
2015-04-18 02:22:00,46.0,33.7,30.04,WNW,297,0.0,0.0,62,0.00,CLR,CLR,0.00,WeatherDisplay:10.34,2015-04-18 06:22:00,
2015-04-18 02:27:00,45.9,34.0,30.04,WNW,297,0.0,0.0,63,0.00,CLR,CLR,0.00,WeatherDisplay:10.34,2015-04-18 06:27:00,
2015-04-18 02:32:00,45.5,34.0,30.04,WNW,297,0.0,0.0,64,0.00,CLR,CLR,0.00,WeatherDisplay:10.34,2015-04-18 06:32:00,
2015-04-18 02:37:00,45.3,34.2,30.04,WNW,296,0.0,0.0,65,0.00,CLR,CLR,0.00,WeatherDisplay:10.34,2015-04-18 06:37:00,
2015-04-18 02:42:00,45.1,34.5,30.04,WNW,296,0.0,3.0,66,0.00,CLR,CLR,0.00,WeatherDisplay:10.34,2015-04-18 06:42:00,
2015-04-18 02:47:00,45.0,34.7,30.04,WNW,296,0.0,0.0,67,0.00,CLR,CLR,0.00,WeatherDisplay:10.34,2015-04-18 06:47:00,
2015-04-18 02:52:00,44.8,34.5,30.04,WNW,296,0.0,0.0,67,0.00,CLR,CLR,0.00,WeatherDisplay:10.34,2015-04-18 06:52:00,
2015-04-18 02:57:00,44.6,34.3,30.04,WNW,296,0.0,0.0,67,0.00,CLR,CLR,0.00,WeatherDisplay:10.34,2015-04-18 06:57:00,
2015-04-18 03:02:00,44.4,34.5,30.04,WNW,296,0.0,0.0,68,0.00,CLR,CLR,0.00,WeatherDisplay:10.34,2015-04-18 07:02:00,
2015-04-18 03:07:00,44.2,34.3,30.04,WNW,296,0.0,0.0,68,0.00,CLR,CLR,0.00,WeatherDisplay:10.34,2015-04-18 07:07:00,
2015-04-18 03:12:00,44.1,34.2,30.04,WNW,296,0.0,0.0,68,0.00,CLR,CLR,0.00,WeatherDisplay:10.34,2015-04-18 07:12:00,
2015-04-18 03:17:00,43.9,34.4,30.04,WNW,296,0.0,0.0,69,0.00,CLR,CLR,0.00,WeatherDisplay:10.34,2015-04-18 07:17:00,
2015-04-18 03:22:00,43.9,34.4,30.04,WNW,296,0.0,0.0,69,0.00,CLR,CLR,0.00,WeatherDisplay:10.34,2015-04-18 07:22:00,
2015-04-18 03:27:00,43.9,34.4,30.04,WNW,296,0.0,2.0,69,0.00,CLR,CLR,0.00,WeatherDisplay:10.34,2015-04-18 07:27:00,
2015-04-18 03:32:00,43.7,34.2,30.04,WNW,296,0.0,0.0,69,0.00,CLR,CLR,0.00,WeatherDisplay:10.34,2015-04-18 07:32:00,
2015-04-18 03:37:00,43.5,34.0,30.04,WNW,296,0.0,0.0,69,0.00,CLR,CLR,0.00,WeatherDisplay:10.34,2015-04-18 07:37:00,
2015-04-18 03:42:00,43.5,34.4,30.04,WNW,296,0.0,0.0,70,0.00,CLR,CLR,0.00,WeatherDisplay:10.34,2015-04-18 07:42:00,
2015-04-18 03:47:00,43.3,34.2,30.07,WNW,288,0.0,0.0,70,0.00,CLR,CLR,0.00,WeatherDisplay:10.34,2015-04-18 07:47:00,
2015-04-18 03:52:00,43.3,34.2,30.07,WNW,286,0.0,0.0,70,0.00,CLR,CLR,0.00,WeatherDisplay:10.34,2015-04-18 07:52:00,
2015-04-18 03:57:00,43.3,34.2,30.07,WNW,289,0.0,0.0,70,0.00,CLR,CLR,0.00,WeatherDisplay:10.34,2015-04-18 07:57:00,
2015-04-18 04:02:00,43.3,34.2,30.07,WNW,289,0.0,0.0,70,0.00,CLR,CLR,0.00,WeatherDisplay:10.34,2015-04-18 08:02:00,
2015-04-18 04:07:00,43.3,34.2,30.07,WNW,289,0.0,0.0,70,0.00,CLR,CLR,0.00,WeatherDisplay:10.34,2015-04-18 08:07:00,
2015-04-18 04:12:00,43.3,34.2,30.07,WNW,289,0.0,0.0,70,0.00,CLR,CLR,0.00,WeatherDisplay:10.34,2015-04-18 08:12:00,
2015-04-18 04:17:00,43.2,33.7,30.07,WNW,289,0.0,0.0,69,0.00,CLR,CLR,0.00,WeatherDisplay:10.34,2015-04-18 08:17:00,
2015-04-18 04:22:00,43.0,33.5,30.07,WNW,289,0.0,0.0,69,0.00,CLR,CLR,0.00,WeatherDisplay:10.34,2015-04-18 08:22:00,
2015-04-18 04:27:00,43.0,33.5,30.07,WNW,289,0.0,0.0,69,0.00,CLR,CLR,0.00,WeatherDisplay:10.34,2015-04-18 08:27:00,
2015-04-18 04:32:00,43.0,33.9,30.07,WNW,289,0.0,0.0,70,0.00,CLR,CLR,0.00,WeatherDisplay:10.34,2015-04-18 08:32:00,
2015-04-18 04:37:00,43.0,33.9,30.07,WNW,289,0.0,0.0,70,0.00,CLR,CLR,0.00,WeatherDisplay:10.34,2015-04-18 08:37:00,
2015-04-18 04:42:00,43.0,33.9,30.07,WNW,289,0.0,0.0,70,0.00,CLR,CLR,0.00,WeatherDisplay:10.34,2015-04-18 08:42:00,
2015-04-18 04:47:00,43.2,34.0,30.07,WNW,289,0.0,0.0,70,0.00,CLR,CLR,0.00,WeatherDisplay:10.34,2015-04-18 08:47:00,
2015-04-18 04:52:00,43.2,34.0,30.07,WNW,289,0.0,0.0,70,0.00,CLR,CLR,0.00,WeatherDisplay:10.34,2015-04-18 08:52:00,